User: anonymous   Login
Location: Mactaquac Provincial Park
(45.9573°N, 66.8897°W)
Time: 00:59:22
(UTC-03:00)
Language:

Cosmos 1867 - Orbit

View from above orbital plane
View from above orbital plane
View from above satellite
View from above satellite

Ground track
Ground track

The orbit data is extracted from the following two-line orbital elements,

1 18187U 87060A   15147.29555306 -.00000058  00000-0  15981-4 0  9991
2 18187 065.0090 173.0084 0015623 281.3734 078.5595 14.31056918456401
Epoch (UTC): 27 May 2015 07:05:35
Eccentricity: 0.0015623
inclination: 65.0090°
perigee height: 777 km
apogee height: 799 km
right ascension of ascending node: 173.0084°
argument of perigee: 281.3734°
revolutions per day: 14.31056918
mean anomaly at epoch: 78.5595°
orbit number at epoch: 45640

The dashed part of the orbit path shows where the satellite is in the earth's shadow,  

DLR